Location: Unspecified
(48.2082°N, 0.0000°E)
Time: 01:39:58
(UTC+00:00)

Explorer 7 - Pass Details

Date: 04 July 2019
Orbit: 485 x 680 km, 50.3° (Epoch: 22 July)

Event Time Altitude Azimuth Distance (km) Brightness Sun altitude
Exits shadow 03:01:41 - 177° (S) 2,229 9.5 -8.6°
Reaches altitude 10° 03:04:12 10° 148° (SSE) 1,728 9.2 -8.3°
Maximum altitude 03:05:18 11° 132° (SE) 1,680 9.3 -8.2°
Drops below altitude 10° 03:06:24 10° 116° (ESE) 1,757 9.6 -8.0°
Sets 03:10:15 0° 80° (E) 2,706 11.3 -7.6°
